| time (UTC) | temp C | wind direction | speed KPH | gust KPH | rain 1hr cm | rain 24hr cm | rain mn cm | humidity % | barometer mb |
| 20260504110218 | 13 | 234 | 0.0 | 4.8 | 0.00 | 0.00 | 0.00 | 75 | 1005.2 |
| 20260504100142 | 13 | 248 | 0.0 | 3.2 | 0.00 | 0.00 | 0.00 | 75 | 1005.1 |
| 20260504090104 | 14 | 224 | 8.0 | 8.0 | 0.00 | 0.00 | 0.00 | 72 | 1005.7 |
| 20260504081535 | 15 | 260 | 3.2 | 8.0 | 0.00 | 0.00 | 0.00 | 71 | 1005.6 |
| 20260504081031 | 15 | 224 | 6.4 | 8.0 | 0.00 | 0.00 | 0.00 | 71 | 1005.3 |
| 20260504080527 | 15 | 206 | 4.8 | 9.7 | 0.00 | 0.00 | 0.00 | 71 | 1005.7 |
| 20260504050340 | 14 | 290 | 0.0 | 1.6 | 0.00 | 0.00 | 0.00 | 69 | 1007.1 |
| 20260504045837 | 14 | 34 | 0.0 | 0.0 | 0.00 | 0.00 | 0.00 | 69 | 1007.1 |
| 20260504045332 | 14 | 34 | 0.0 | 0.0 | 0.00 | 0.00 | 0.00 | 69 | 1007.1 |
| 20260504044829 | 14 | 217 | 0.0 | 3.2 | 0.00 | 0.00 | 0.00 | 69 | 1007.3 |
| 20260504044326 | 15 | 304 | 0.0 | 3.2 | 0.00 | 0.00 | 0.00 | 69 | 1007.4 |
| 20260504043823 | 15 | 226 | 0.0 | 3.2 | 0.00 | 0.00 | 0.00 | 68 | 1007.5 |
| 20260504043320 | 15 | 155 | 0.0 | 1.6 | 0.00 | 0.00 | 0.00 | 68 | 1007.4 |
| 20260504042818 | 15 | 126 | 0.0 | 0.0 | 0.00 | 0.00 | 0.00 | 68 | 1007.5 |
| 20260504042314 | 15 | 326 | 1.6 | 3.2 | 0.00 | 0.00 | 0.00 | 67 | 1007.5 |
| 20260504041811 | 15 | 284 | 0.0 | 1.6 | 0.00 | 0.00 | 0.00 | 67 | 1007.4 |
| 20260504041307 | 15 | 336 | 0.0 | 3.2 | 0.00 | 0.00 | 0.00 | 68 | 1007.6 |
| 20260504040803 | 15 | 50 | 0.0 | 1.6 | 0.00 | 0.00 | 0.00 | 69 | 1007.7 |
| 20260504040301 | 15 | 315 | 0.0 | 0.0 | 0.00 | 0.00 | 0.00 | 69 | 1007.5 |
| 20260504035756 | 14 | 217 | 0.0 | 1.6 | 0.00 | 0.00 | 0.00 | 70 | 1007.8 |
| 20260504035253 | 15 | 309 | 0.0 | 0.0 | 0.00 | 0.00 | 0.00 | 70 | 1007.9 |
| 20260504034751 | 15 | 309 | 0.0 | 0.0 | 0.00 | 0.00 | 0.00 | 69 | 1007.8 |
| 20260504034248 | 15 | 309 | 0.0 | 0.0 | 0.00 | 0.00 | 0.00 | 67 | 1008.0 |
| 20260504033745 | 15 | 309 | 0.0 | 0.0 | 0.00 | 0.00 | 0.00 | 66 | 1008.0 |
| 20260504033243 | 15 | 66 | 0.0 | 0.0 | 0.00 | 0.00 | 0.00 | 65 | 1008.1 |
| 20260504032740 | 15 | 50 | 0.0 | 1.6 | 0.00 | 0.00 | 0.00 | 64 | 1007.9 |
| 20260504032237 | 16 | 13 | 0.0 | 1.6 | 0.00 | 0.00 | 0.00 | 63 | 1007.9 |
| 20260504031733 | 16 | 180 | 0.0 | 0.0 | 0.00 | 0.00 | 0.00 | 61 | 1008.0 |
| 20260504031231 | 16 | 37 | 0.0 | 0.0 | 0.00 | 0.00 | 0.00 | 60 | 1008.1 |
| 20260504030727 | 16 | 233 | 1.6 | 1.6 | 0.00 | 0.00 | 0.00 | 61 | 1008.0 |
| 20260504030224 | 16 | 41 | 3.2 | 4.8 | 0.00 | 0.00 | 0.00 | 60 | 1008.3 |
| 20260504025721 | 16 | 329 | 0.0 | 3.2 | 0.00 | 0.00 | 0.00 | 60 | 1007.9 |
| 20260504025217 | 17 | 141 | 0.0 | 4.8 | 0.00 | 0.00 | 0.00 | 59 | 1007.9 |
| 20260504024715 | 17 | 129 | 0.0 | 3.2 | 0.00 | 0.00 | 0.00 | 59 | 1007.9 |
| 20260504024211 | 17 | 186 | 0.0 | 1.6 | 0.00 | 0.00 | 0.00 | 58 | 1007.8 |
| 20260504023708 | 17 | 309 | 0.0 | 1.6 | 0.00 | 0.00 | 0.00 | 59 | 1008.0 |
| 20260504023203 | 17 | 213 | 1.6 | 4.8 | 0.00 | 0.00 | 0.00 | 57 | 1007.6 |
| 20260504022700 | 17 | 166 | 6.4 | 8.0 | 0.00 | 0.00 | 0.00 | 57 | 1007.6 |
| 20260504022156 | 17 | 99 | 0.0 | 4.8 | 0.00 | 0.00 | 0.00 | 57 | 1007.4 |
| 20260504021654 | 17 | 252 | 3.2 | 3.2 | 0.00 | 0.00 | 0.00 | 57 | 1007.6 |
| 20260504021150 | 17 | 299 | 1.6 | 3.2 | 0.00 | 0.00 | 0.00 | 56 | 1007.5 |
| 20260504020648 | 18 | 182 | 3.2 | 4.8 | 0.00 | 0.00 | 0.00 | 56 | 1007.5 |
| 20260504020143 | 17 | 217 | 3.2 | 4.8 | 0.00 | 0.00 | 0.00 | 57 | 1007.6 |
| 20260504015641 | 17 | 202 | 0.0 | 3.2 | 0.00 | 0.00 | 0.00 | 57 | 1007.5 |
| 20260504015137 | 17 | 89 | 0.0 | 3.2 | 0.00 | 0.00 | 0.00 | 57 | 1007.5 |
| 20260504014632 | 17 | 212 | 0.0 | 3.2 | 0.00 | 0.00 | 0.00 | 57 | 1007.5 |
| 20260504014130 | 17 | 20 | 0.0 | 1.6 | 0.00 | 0.00 | 0.00 | 57 | 1007.4 |
| 20260504013628 | 17 | 218 | 0.0 | 0.0 | 0.00 | 0.00 | 0.00 | 57 | 1007.2 |
| 20260504013124 | 17 | 172 | 0.0 | 1.6 | 0.00 | 0.00 | 0.00 | 57 | 1007.2 |
| 20260504012621 | 18 | 322 | 0.0 | 0.0 | 0.00 | 0.00 | 0.00 | 56 | 1007.4 |
| 20260504012120 | 18 | 119 | 0.0 | 3.2 | 0.00 | 0.00 | 0.00 | 55 | 1007.5 |
| 20260504011616 | 18 | 240 | 3.2 | 4.8 | 0.00 | 0.00 | 0.00 | 54 | 1007.3 |
| 20260504011112 | 18 | 166 | 1.6 | 3.2 | 0.00 | 0.00 | 0.00 | 52 | 1007.3 |
| 20260504010608 | 18 | 126 | 1.6 | 1.6 | 0.00 | 0.00 | 0.00 | 51 | 1007.3 |
| 20260504010104 | 19 | 352 | 0.0 | 1.6 | 0.00 | 0.00 | 0.00 | 51 | 1007.3 |
| 20260504005601 | 20 | 207 | 1.6 | 3.2 | 0.00 | 0.00 | 0.00 | 50 | 1007.2 |
| 20260504005058 | 20 | 167 | 1.6 | 3.2 | 0.00 | 0.00 | 0.00 | 49 | 1007.3 |
| 20260504004556 | 20 | 179 | 6.4 | 8.0 | 0.00 | 0.00 | 0.00 | 47 | 1007.2 |
| 20260504004053 | 20 | 199 | 4.8 | 9.7 | 0.00 | 0.00 | 0.00 | 47 | 1007.2 |
| 20260504003549 | 20 | 237 | 4.8 | 8.0 | 0.00 | 0.00 | 0.00 | 47 | 1007.2 |
| 20260504003046 | 21 | 211 | 4.8 | 9.7 | 0.00 | 0.00 | 0.00 | 46 | 1007.0 |
| 20260504002543 | 21 | 205 | 6.4 | 9.7 | 0.00 | 0.00 | 0.00 | 45 | 1007.1 |
| 20260504002040 | 21 | 202 | 9.7 | 9.7 | 0.00 | 0.00 | 0.00 | 44 | 1007.0 |
| 20260504001538 | 21 | 231 | 6.4 | 9.7 | 0.00 | 0.00 | 0.00 | 44 | 1007.0 |
| 20260504001034 | 21 | 178 | 6.4 | 6.4 | 0.00 | 0.00 | 0.00 | 44 | 1007.1 |
| 20260504000531 | 21 | 207 | 9.7 | 12.9 | 0.00 | 0.00 | 0.00 | 43 | 1007.2 |
| 20260504000029 | 22 | 185 | 6.4 | 9.7 | 0.00 | 0.00 | 0.00 | 43 | 1007.2 |
| 20260503235527 | 22 | 213 | 6.4 | 9.7 | 0.00 | 0.00 | 0.00 | 43 | 1007.2 |
| 20260503235023 | 22 | 211 | 6.4 | 19.3 | 0.00 | 0.00 | 0.00 | 43 | 1007.2 |
| 20260503234521 | 22 | 223 | 3.2 | 11.3 | 0.00 | 0.00 | 0.00 | 43 | 1007.0 |
| 20260503234019 | 22 | 200 | 6.4 | 14.5 | 0.00 | 0.00 | 0.00 | 41 | 1007.3 |
| 20260503233515 | 22 | 180 | 6.4 | 17.7 | 0.00 | 0.00 | 0.00 | 41 | 1007.3 |
| 20260503233011 | 22 | 162 | 8.0 | 22.5 | 0.00 | 0.00 | 0.00 | 40 | 1007.3 |
| 20260503232508 | 23 | 201 | 8.0 | 9.7 | 0.00 | 0.00 | 0.00 | 40 | 1007.2 |
| 20260503232006 | 23 | 224 | 14.5 | 20.9 | 0.00 | 0.00 | 0.00 | 39 | 1007.4 |
| 20260503231504 | 23 | 195 | 9.7 | 16.1 | 0.00 | 0.00 | 0.00 | 41 | 1007.3 |
| 20260503231000 | 23 | 197 | 9.7 | 12.9 | 0.00 | 0.00 | 0.00 | 39 | 1007.3 |
| 20260503230457 | 23 | 213 | 9.7 | 17.7 | 0.00 | 0.00 | 0.00 | 41 | 1007.4 |
| 20260503225954 | 23 | 181 | 12.9 | 24.1 | 0.00 | 0.00 | 0.00 | 40 | 1007.4 |
| 20260503225451 | 23 | 186 | 9.7 | 14.5 | 0.00 | 0.00 | 0.00 | 38 | 1007.5 |
| 20260503224946 | 23 | 214 | 14.5 | 29.0 | 0.00 | 0.00 | 0.00 | 37 | 1007.6 |
| 20260503224443 | 23 | 195 | 11.3 | 19.3 | 0.00 | 0.00 | 0.00 | 41 | 1007.7 |
| 20260503223941 | 23 | 230 | 12.9 | 20.9 | 0.00 | 0.00 | 0.00 | 38 | 1007.8 |
| 20260503223439 | 23 | 216 | 16.1 | 24.1 | 0.00 | 0.00 | 0.00 | 39 | 1007.7 |
| 20260503222934 | 23 | 210 | 12.9 | 17.7 | 0.00 | 0.00 | 0.00 | 39 | 1007.9 |
| 20260503222433 | 23 | 238 | 8.0 | 19.3 | 0.00 | 0.00 | 0.00 | 38 | 1007.9 |
| 20260503221931 | 23 | 227 | 12.9 | 20.9 | 0.00 | 0.00 | 0.00 | 42 | 1008.0 |
| 20260503221429 | 23 | 181 | 8.0 | 19.3 | 0.00 | 0.00 | 0.00 | 41 | 1007.8 |
| 20260503220925 | 23 | 231 | 14.5 | 22.5 | 0.00 | 0.00 | 0.00 | 37 | 1008.0 |
| 20260503220421 | 23 | 216 | 9.7 | 22.5 | 0.00 | 0.00 | 0.00 | 38 | 1008.1 |
| 20260503215919 | 23 | 203 | 9.7 | 30.6 | 0.00 | 0.00 | 0.00 | 38 | 1008.1 |
| 20260503215416 | 23 | 156 | 6.4 | 17.7 | 0.00 | 0.00 | 0.00 | 39 | 1008.4 |
| 20260503214913 | 23 | 219 | 9.7 | 17.7 | 0.00 | 0.00 | 0.00 | 38 | 1008.6 |
| 20260503214411 | 23 | 187 | 19.3 | 22.5 | 0.00 | 0.00 | 0.00 | 37 | 1008.5 |
| 20260503213908 | 23 | 211 | 12.9 | 20.9 | 0.00 | 0.00 | 0.00 | 41 | 1008.6 |
| 20260503213406 | 23 | 177 | 14.5 | 24.1 | 0.00 | 0.00 | 0.00 | 38 | 1008.7 |
| 20260503212902 | 23 | 191 | 14.5 | 16.1 | 0.00 | 0.00 | 0.00 | 41 | 1008.6 |
| 20260503212400 | 23 | 198 | 11.3 | 22.5 | 0.00 | 0.00 | 0.00 | 39 | 1008.7 |
| 20260503211857 | 23 | 198 | 9.7 | 27.4 | 0.00 | 0.00 | 0.00 | 39 | 1008.9 |
| 20260503211354 | 23 | 203 | 11.3 | 25.7 | 0.00 | 0.00 | 0.00 | 37 | 1008.8 |
| 20260503210848 | 23 | 193 | 6.4 | 17.7 | 0.00 | 0.00 | 0.00 | 40 | 1008.9 |
| 20260503210347 | 22 | 171 | 14.5 | 24.1 | 0.00 | 0.00 | 0.00 | 38 | 1009.2 |
| 20260503205841 | 22 | 205 | 11.3 | 22.5 | 0.00 | 0.00 | 0.00 | 39 | 1009.2 |
| 20260503205338 | 22 | 223 | 24.1 | 27.4 | 0.00 | 0.00 | 0.00 | 38 | 1009.3 |
| 20260503204834 | 22 | 231 | 24.1 | 27.4 | 0.00 | 0.00 | 0.00 | 39 | 1009.4 |
| 20260503204332 | 22 | 236 | 24.1 | 25.7 | 0.00 | 0.00 | 0.00 | 37 | 1009.5 |
| 20260503203829 | 22 | 226 | 19.3 | 24.1 | 0.00 | 0.00 | 0.00 | 42 | 1009.4 |
| 20260503203327 | 22 | 207 | 8.0 | 22.5 | 0.00 | 0.00 | 0.00 | 39 | 1009.7 |
| 20260503202823 | 22 | 169 | 17.7 | 22.5 | 0.00 | 0.00 | 0.00 | 39 | 1009.5 |
| 20260503202321 | 22 | 186 | 11.3 | 19.3 | 0.00 | 0.00 | 0.00 | 42 | 1009.9 |
| 20260503201819 | 22 | 175 | 12.9 | 20.9 | 0.00 | 0.00 | 0.00 | 37 | 1009.7 |
| 20260503201316 | 22 | 179 | 14.5 | 19.3 | 0.00 | 0.00 | 0.00 | 39 | 1010.0 |
| 20260503200813 | 22 | 213 | 12.9 | 25.7 | 0.00 | 0.00 | 0.00 | 40 | 1009.9 |
| 20260503200309 | 22 | 200 | 16.1 | 25.7 | 0.00 | 0.00 | 0.00 | 39 | 1010.0 |
| 20260503195807 | 21 | 241 | 12.9 | 29.0 | 0.00 | 0.00 | 0.00 | 40 | 1010.2 |
| 20260503195304 | 21 | 208 | 20.9 | 22.5 | 0.00 | 0.00 | 0.00 | 39 | 1010.4 |
| 20260503194801 | 21 | 176 | 9.7 | 19.3 | 0.00 | 0.00 | 0.00 | 43 | 1010.5 |
| 20260503194256 | 21 | 206 | 14.5 | 29.0 | 0.00 | 0.00 | 0.00 | 41 | 1010.7 |
| 20260503193753 | 21 | 216 | 12.9 | 22.5 | 0.00 | 0.00 | 0.00 | 39 | 1010.9 |
| 20260503193249 | 21 | 195 | 4.8 | 14.5 | 0.00 | 0.00 | 0.00 | 44 | 1010.8 |
| 20260503192745 | 21 | 223 | 20.9 | 24.1 | 0.00 | 0.00 | 0.00 | 39 | 1010.9 |
| 20260503192240 | 21 | 198 | 22.5 | 25.7 | 0.00 | 0.00 | 0.00 | 38 | 1010.9 |
| 20260503191737 | 21 | 199 | 11.3 | 19.3 | 0.00 | 0.00 | 0.00 | 45 | 1011.4 |
| 20260503191234 | 21 | 163 | 11.3 | 16.1 | 0.00 | 0.00 | 0.00 | 38 | 1011.2 |
| 20260503190731 | 21 | 191 | 12.9 | 22.5 | 0.00 | 0.00 | 0.00 | 38 | 1011.3 |
| 20260503190227 | 21 | 226 | 12.9 | 24.1 | 0.00 | 0.00 | 0.00 | 41 | 1011.5 |
| 20260503185725 | 21 | 198 | 8.0 | 16.1 | 0.00 | 0.00 | 0.00 | 37 | 1011.3 |
| 20260503185220 | 21 | 206 | 6.4 | 17.7 | 0.00 | 0.00 | 0.00 | 39 | 1011.6 |
| 20260503184715 | 20 | 213 | 14.5 | 14.5 | 0.00 | 0.00 | 0.00 | 38 | 1011.5 |
| 20260503184212 | 20 | 208 | 12.9 | 25.7 | 0.00 | 0.00 | 0.00 | 38 | 1011.6 |
| 20260503183708 | 20 | 174 | 4.8 | 20.9 | 0.00 | 0.00 | 0.00 | 38 | 1011.6 |
| 20260503183206 | 20 | 240 | 11.3 | 17.7 | 0.00 | 0.00 | 0.00 | 38 | 1011.6 |
| 20260503182704 | 20 | 175 | 12.9 | 19.3 | 0.00 | 0.00 | 0.00 | 36 | 1011.8 |
| 20260503182202 | 20 | 227 | 14.5 | 20.9 | 0.00 | 0.00 | 0.00 | 35 | 1011.7 |
| 20260503181658 | 20 | 150 | 9.7 | 14.5 | 0.00 | 0.00 | 0.00 | 35 | 1012.0 |
| 20260503181155 | 20 | 195 | 12.9 | 25.7 | 0.00 | 0.00 | 0.00 | 38 | 1012.0 |
| 20260503180652 | 20 | 159 | 11.3 | 19.3 | 0.00 | 0.00 | 0.00 | 35 | 1012.3 |
| 20260503180150 | 20 | 234 | 16.1 | 17.7 | 0.00 | 0.00 | 0.00 | 41 | 1012.3 |
| 20260503175646 | 20 | 186 | 12.9 | 27.4 | 0.00 | 0.00 | 0.00 | 37 | 1012.6 |
| 20260503175143 | 19 | 148 | 4.8 | 19.3 | 0.00 | 0.00 | 0.00 | 36 | 1012.5 |
| 20260503174640 | 19 | 205 | 12.9 | 17.7 | 0.00 | 0.00 | 0.00 | 36 | 1012.7 |
| 20260503174137 | 20 | 156 | 9.7 | 17.7 | 0.00 | 0.00 | 0.00 | 36 | 1012.6 |
| 20260503173632 | 19 | 203 | 9.7 | 19.3 | 0.00 | 0.00 | 0.00 | 36 | 1013.0 |
| 20260503173129 | 19 | 219 | 17.7 | 19.3 | 0.00 | 0.00 | 0.00 | 38 | 1013.0 |
| 20260503172626 | 19 | 176 | 9.7 | 17.7 | 0.00 | 0.00 | 0.00 | 34 | 1013.0 |
| 20260503172123 | 18 | 209 | 16.1 | 19.3 | 0.00 | 0.00 | 0.00 | 36 | 1013.2 |
| 20260503171620 | 18 | 189 | 14.5 | 17.7 | 0.00 | 0.00 | 0.00 | 37 | 1013.0 |
| 20260503171117 | 18 | 224 | 9.7 | 17.7 | 0.00 | 0.00 | 0.00 | 42 | 1013.2 |
| 20260503170614 | 18 | 216 | 12.9 | 16.1 | 0.00 | 0.00 | 0.00 | 41 | 1013.2 |
| 20260503170111 | 19 | 212 | 14.5 | 22.5 | 0.00 | 0.00 | 0.00 | 38 | 1013.1 |
| 20260503151006 | 15 | 185 | 11.3 | 22.5 | 0.00 | 0.00 | 0.00 | 47 | 1014.6 |
| 20260503150503 | 15 | 186 | 8.0 | 16.1 | 0.00 | 0.00 | 0.00 | 53 | 1014.6 |
| 20260503131355 | 11 | 162 | 17.7 | 20.9 | 0.00 | 0.00 | 0.00 | 66 | 1014.9 |
| 20260503130853 | 10 | 215 | 17.7 | 17.7 | 0.00 | 0.00 | 0.00 | 67 | 1014.9 |
| 20260503130350 | 10 | 171 | 11.3 | 14.5 | 0.00 | 0.00 | 0.00 | 67 | 1015.0 |